Location: Hoyos del Collado
(40.3594°N, 5.2003°W)
Time: 13:41:32
(UTC+00:00)

ISS - Pass Details

Date: 26 June 2024
Orbit: 410 x 424 km, 51.6° (Epoch: 13 July)

Event Time Altitude Azimuth Distance (km) Brightness Sun altitude
Exits shadow 04:06:11 - 272° (W) 1,900 -0.9 -8.0°
Reaches altitude 10° 04:07:21 10° 281° (W) 1,485 -1.3 -7.8°
Maximum altitude 04:10:07 23° 337° (NNW) 924 -1.8 -7.4°
Drops below altitude 10° 04:12:54 10° 33° (NNE) 1,498 0.5 -7.0°
Sets 04:15:17 0° 48° (NE) 2,367 2.8 -6.6°
